{"data":{"norad_id":49205,"intl_designator":"2021-083V","name":"ONEWEB-0339","alt_names":[],"object_type":"PAYLOAD","status":"ACTIVE","operator":null,"country":"UK","launch_date":"2021-09-14","launch_site_code":"TYMSC","launch_vehicle":null,"mission":null,"orbit_class":"UNKNOWN","rcs_meters":null,"size_class":null,"mass_kg":null,"dimensions":null,"purposes":["comms"],"wikipedia_slug":null,"has_3d_model":false,"image_url":null,"decayed_at":null,"tle_current":{"epoch":"2026-05-25T04:41:28.262400Z","epoch_age_seconds":58194,"freshness":"FRESH","line1":"1 49205U 21083V   26145.19546600  .00000119  00000+0  29142-3 0  9994","line2":"2 49205  87.8940 324.8075 0001514  88.1762 271.9540 13.13468276227875","mean_motion":13.13468276,"eccentricity":0.0001514,"inclination_deg":87.894,"raan_deg":324.8075,"arg_perigee_deg":88.1762,"mean_anomaly_deg":271.954,"bstar":0.00029142,"rev_number":22787,"period_min":109.63340541314,"perigee_km":1208.6232301655,"apogee_km":1210.9208490227,"semimajor_km":7587.9090395941,"source":"CELESTRAK","updated_at":"2026-05-25T13:38:22.513294Z"}}}